User: anonymous   Login
Location: Bruderhein
(53.8035°N, 112.9265°W)
Time: 12:01:09
(UTC+00:00)
Language:

Burner II No. 9 - Orbit

View from above orbital plane
View from above orbital plane
View from above satellite
View from above satellite

Ground track
Ground track

The orbit data is extracted from the following two-line orbital elements,

1  4332U 70012B   23341.53614858  .00000222  00000-0  99824-4 0  9997
2  4332  98.9395 214.4064 0060169 357.8003   2.2905 14.31217780803234
Epoch (UTC): 07 December 2023 12:52:03
Eccentricity: 0.0060169
inclination: 98.9395°
perigee height: 744 km
apogee height: 831 km
right ascension of ascending node: 214.4064°
argument of perigee: 357.8003°
revolutions per day: 14.31217780
mean anomaly at epoch: 2.2905°
orbit number at epoch: 80323

The dashed part of the orbit path shows where the satellite is in the earth's shadow,  

DLR